Flag for Norway Weather past 2 weeks in Fredrikstad, Norway

Now
48 °F

Passing clouds.


Feels Like: 43 °F
Forecast: 40 / 56 °F
Wind: 12 mph from Southwest

Location: Rygge

Current Time: May 23, 2015 at 8:44:06 AM

Latest Report: May 23, 2015 at 7:50 AM


Visibility: N/A

Pressure: 29.86 "Hg

Humidity: 66%

Dew point: 37 °F

Location of FredrikstadLocation

Historic Weather in Fredrikstad — Graph

°F

Fredrikstad temperature yesterday

Maximum temperature yesterday: 52 °F (at 3:20 PM)
Minimum temperature yesterday: 46 °F (at 12:50 AM)
Average temperature yesterday: 49 °F

Past Weeks' High & Low Weather Summary

 TemperatureHumidityPressure
High59 °F (May 13, 12:20 PM)100% (May 10, 12:50 AM)30.15 "Hg (May 10, 12:50 AM)
Low34 °F (May 9, 5:50 AM)29% (May 14, 6:50 PM)29.45 "Hg (May 19, 6:50 AM)
Average48 °F71%29.82 "Hg
* Reported May 8 7:20 AM — May 23 7:20 AM, Fredrikstad, Weather by CustomWeather, © 2015

Note: Actual official high and low records may vary slightly from our data, if they occured in-between our weather recording intervals... More about our weather records

Advertising

Fredrikstad weather history for previous 24 hours

 ConditionsComfort  
Time TempWeatherWind HumidityBarometerVisibility
7:20 AM
Sat, May 23
48 °FPassing clouds.13 mph66%29.83 "HgN/A
6:50 AM48 °FPassing clouds.14 mph66%29.83 "HgN/A
6:20 AM46 °FSunny.16 mph71%29.80 "Hg10 mi
5:50 AM46 °FCool.14 mph71%29.80 "HgN/A
5:20 AM45 °FQuite cool.15 mph76%29.80 "HgN/A
4:50 AM45 °FQuite cool.14 mph76%29.80 "HgN/A
4:20 AM43 °FQuite cool.12 mph76%29.83 "HgN/A
3:50 AM43 °FQuite cool.10 mph71%29.83 "HgN/A
3:20 AM43 °FQuite cool.8 mph71%29.83 "HgN/A
2:50 AM43 °FQuite cool.9 mph66%29.83 "HgN/A
2:20 AM45 °FQuite cool.8 mph66%29.83 "HgN/A
1:50 AM45 °FQuite cool.12 mph66%29.83 "HgN/A
1:20 AM45 °FQuite cool.8 mph66%29.80 "HgN/A
12:50 AM45 °FQuite cool.9 mph66%29.80 "HgN/A
12:20 AM46 °FCool.9 mph66%29.80 "HgN/A
11:50 PM
Fri, May 22
46 °FCool.15 mph76%29.77 "HgN/A
10:50 PM48 °FSunny.14 mph82%29.77 "Hg10 mi
10:20 PM48 °FSunny.13 mph87%29.77 "Hg10 mi
9:50 PM48 °FPassing clouds.12 mph87%29.74 "HgN/A
9:20 PM48 °FSunny.12 mph87%29.74 "Hg10 mi
8:50 PM48 °FPartly sunny.10 mph87%29.74 "HgN/A
8:20 PM50 °FLight rain. Partly sunny.10 mph94%29.77 "HgN/A
7:50 PM50 °FDrizzle. Broken clouds.10 mph100%29.77 "Hg6 mi
7:20 PM50 °FRain. Partly sunny.15 mph94%29.77 "Hg5 mi
6:50 PM50 °FPartly sunny.18 mph94%29.77 "Hg5 mi
6:20 PM50 °FDrizzle. Partly sunny.21 mph94%29.80 "Hg5 mi
5:50 PM50 °FPartly sunny.20 mph94%29.80 "HgN/A
5:20 PM52 °FPartly sunny.17 mph88%29.80 "HgN/A
4:50 PM52 °FPartly sunny.18 mph88%29.83 "HgN/A
4:20 PM52 °FPartly sunny.20 mph88%29.83 "HgN/A
3:50 PM52 °FPartly sunny.22 mph88%29.83 "HgN/A
3:20 PM52 °FPartly sunny.18 mph88%29.86 "Hg6 mi
2:50 PM50 °FPartly sunny.20 mph94%29.86 "Hg4 mi
2:20 PM50 °FPartly sunny.20 mph94%29.89 "Hg5 mi
1:50 PM50 °FPartly sunny.21 mph94%29.89 "Hg4 mi
1:20 PM50 °FDrizzle. Partly sunny.20 mph94%29.92 "Hg5 mi
12:50 PM50 °FPartly sunny.17 mph94%29.92 "HgN/A
12:20 PM50 °FPartly sunny.16 mph94%29.95 "HgN/A
11:50 AM50 °FPartly sunny.16 mph88%29.95 "HgN/A
11:20 AM50 °FPartly sunny.18 mph88%29.95 "HgN/A
10:50 AM50 °FPartly sunny.17 mph88%29.98 "HgN/A
10:20 AM50 °FPartly sunny.17 mph88%29.98 "HgN/A
9:50 AM50 °FBroken clouds.17 mph82%29.98 "HgN/A
9:20 AM50 °FPartly sunny.15 mph82%29.98 "HgN/A
8:50 AM50 °FPartly sunny.17 mph82%29.98 "HgN/A
8:20 AM50 °FBroken clouds.18 mph82%29.98 "HgN/A
Weather by CustomWeather, © 2015

See weather overviewHow to use our weather pages